User: anonymous   Login
Location: Camp Creek
(33.9000°N, 111.8167°W)
Time: 04:37:09
(UTC-07:00)
Language:

Cosmos 2322 Rocket - Orbit

View from above orbital plane
View from above orbital plane
View from above satellite
View from above satellite

Ground track
Ground track

The orbit data is extracted from the following two-line orbital elements,

1 23705U 95058B   16182.07186046 -.00000110  00000-0 -32271-4 0  9997
2 23705  71.0230  47.7829 0010442 119.4618 240.7548 14.15089571 67374
Epoch (UTC): 30 June 2016 01:43:28
Eccentricity: 0.0010442
inclination: 71.0230°
perigee height: 834 km
apogee height: 849 km
right ascension of ascending node: 47.7829°
argument of perigee: 119.4618°
revolutions per day: 14.15089571
mean anomaly at epoch: 240.7548°
orbit number at epoch: 6737

The dashed part of the orbit path shows where the satellite is in the earth's shadow,  

DLR